パンスターズ彗星

469P/PanSTARRS (2008)

English version
Home page
Updated on October 5, 2023

---------------------------------------------------------------------

・ プロフィール

・ 軌道要素

                    Epoch = 2008 Apr.  4.0 TT
     T = 2008 Mar. 27.18204 TT        Peri. =  60.90568
     e = 0.2869197                    Node  = 181.78845 2000.0
     q = 3.3311264 AU                 Incl. =  19.86243
       a =  4.6714603 AU   n = 0.09761691   P =  10.10 years

・ 光度変化

        H = 15.0  G = 0.15

---------------------------------------------------------------------

軌道要素は、CBET 5284に掲載されたものです。
光度グラフはComet for Windowsで作成したものです。

---------------------------------------------------------------------

Copyright(C) Seiichi Yoshida (comet@aerith.net). All rights reserved.